Regional Weather Roundup
Issued by NWS

Home | Current Version | Previous Version | Graphics & Text | Print | Product List | Glossary On
Versions: 1 2 3 4 5 6 7 8 9 10 11 12 13 14 15 16 17 18 19 20 21 22 23 24 25 26 27 28 29 30 31 32 33 34 35 36 37 38 39 40 41 42 43 44 45 46 47 48 49 50
000
ASUS43 KMPX 182110
RWRMN
WEATHER ROUNDUP FOR MINNESOTA
NATIONAL WEATHER SERVICE TWIN CITIES/CHANHASSEN MN
300 PM CST SAT FEB 18 2017


NOTE: "FAIR" INDICATES FEW OR NO CLOUDS BELOW 12,000 FEET WITH NO
SIGNIFICANT WEATHER AND/OR OBSTRUCTIONS TO VISIBILITY. N/A MEANS
CURRENT SKY AND/OR WEATHER CONDITIONS ARE NOT AVAILABLE.

MNZ060>063-068>070-182200-
   Twin Cities Metro

CITY           SKY/WX    TMP DP  RH WIND       PRES   REMARKS
TWIN CITIES    MOSUNNY   57  34  41 SW8       29.77S
ST PAUL        SUNNY     59  32  36 SW8       29.77S
CRYSTAL        SUNNY     59  30  33 W9        29.76S
BLAINE         MOSUNNY   61  32  33 W7        29.76F
LAKEVILLE      SUNNY     55  37  50 CALM      29.78S
EDEN PRAIRIE   SUNNY     56  36  47 SW8       29.77R
SOUTH ST PAUL  SUNNY     57  33  40 W6        29.77S
LAKE ELMO      FAIR      57  34  41 W7        29.77S
$$
MNZ001>005-007-008-013>017-022>024-027-028-182200-
   Northwest Minnesota

CITY           SKY/WX    TMP DP  RH WIND       PRES   REMARKS
BEMIDJI        CLOUDY    42  32  67 W9        29.72R
HALLOCK        PTSUNNY   39  34  81 NW5       29.71R
ROSEAU         MOSUNNY   43  34  70 SW8       29.68R
WARROAD        SUNNY     43  34  70 W12       29.67R
THIEF RVR FALL PTSUNNY   38  32  79 W10       29.74R
CROOKSTON      CLOUDY    41  36  81 SW7       29.75S
FOSSTON        MOSUNNY   39  34  81 SW6       29.74S
DETROIT LAKES  MOSUNNY   45  34  65 W5        29.75S
MOORHEAD       CLOUDY    45  39  81 W3        29.76S
PARK RAPIDS    CLOUDY    43  31  62 W7        29.72S
MAHNOMEN       FAIR      41  36  81 SW8       29.75R
$$
MNZ006-009>011-018-025>026-182200-
   North Central Minnesota

CITY           SKY/WX    TMP DP  RH WIND       PRES   REMARKS
BAUDETTE       SUNNY     43  31  62 W13       29.65R
FLAG ISLAND    SUNNY     46  28  49 W17       29.62R
INTL FALLS     SUNNY     50  32  50 W13G21    29.62R
WASKISH        MOSUNNY   41  34  75 SW14      29.69R
BIG FORK       SUNNY     54  30  40 W8        29.67R
LONGVILLE      MOSUNNY   48  30  49 SW7       29.71R
GRAND RAPIDS   CLOUDY    51  29  42 W9G16     29.70S
CRANE LAKE     SUNNY     52  30  43 NW8       29.63R
ORR            SUNNY     52  28  40 W12G17    29.62R
COOK           CLOUDY    50  32  50 W17G24    29.65R
WALKER         FAIR      50  26  39 W13       29.71R
$$
MNZ012-019>021-037-182200-
   Northeast Minnesota

CITY           SKY/WX    TMP DP  RH WIND       PRES   REMARKS
DULUTH         MOSUNNY   51  31  46 W17       29.67R
ELY            SUNNY     50  30  46 W14G22    29.62R
HIBBING        MOSUNNY   51  30  44 W12G22    29.66R
EVELETH        MOSUNNY   50  28  43 W16G25    29.67R
DULUTH HARBOR  MOSUNNY   52  34  50 SW10G17   29.68R
TWO HARBORS    MOSUNNY   57  37  47 W15       29.64R
GRAND MARAIS     N/A     44  35  70 W10       29.58R
G MARAIS ARPRT SUNNY     48  27  43 W9G16     29.58R
$$
MNZ029>031-032-039>041-046>048-054>057-064-182200-
   West Central Minnesota

CITY           SKY/WX    TMP DP  RH WIND       PRES   REMARKS
FERGUS FALLS   CLOUDY    46  39  76 CALM      29.80S
WHEATON        CLOUDY    52  43  71 E5        29.77F
MORRIS         CLOUDY    52  43  71 S5        29.76F
ALEXANDRIA     CLOUDY    48  39  71 W8        29.77S
ELBOW LAKE     FAIR      47  42  80 W6        29.77S
WADENA         MOSUNNY   46  34  61 W8        29.74R
GLENWOOD       MOSUNNY   48  43  81 SW8       29.79R
APPLETON       CLOUDY    54  39  58 CALM      29.77S
BENSON         CLOUDY    54  36  50 CALM      29.79S
ORTONVILLE       N/A     54  39  58 CALM      29.77R
WILLMAR        FAIR      52  45  76 CALM      29.80S
$$
MNZ033>034-036-042>043-049>051-058-059-182200-
   Central Minnesota

CITY           SKY/WX    TMP DP  RH WIND       PRES   REMARKS
ST CLOUD       MOSUNNY   55  38  52 W7        29.76R
SAUK CENTRE    FAIR      49  41  72 W7        29.78R
PAYNESVILLE    MOSUNNY   52  39  61 W6        29.78S
AITKIN         CLOUDY    54  27  35 SW7       29.70S
PINE RIVER     CLOUDY    50  34  53 W5        29.76R
BRAINERD       MOSUNNY   50  31  48 W7        29.73R
STAPLES        MOSUNNY   46  36  66 W5        29.74R
LONG PRAIRIE   FAIR      50  36  57 SW7       29.77R
LITTLE FALLS   SUNNY     54  34  47 W7        29.76R
LITCHFIELD     SUNNY     55  43  62 W3        29.79R
BUFFALO        SUNNY     54  36  50 W6        29.78S
MAPLE LAKE     SUNNY     55  41  58 SW7       29.78S
HUTCHINSON     PTSUNNY   56  41  57 W5        29.79S
$$
MNZ037-044-045-052-053-182200-
   East Central Minnesota

CITY           SKY/WX    TMP DP  RH WIND       PRES   REMARKS
PRINCETON      CLOUDY    57  36  44 W7        29.76R
MORA           MOSUNNY   55  32  41 W10       29.75S
CAMBRIDGE      SUNNY     57  37  47 W5        29.74R
RUSH CITY      MOSUNNY   54  34  47 SW6       29.74S
MOOSE LAKE     PTSUNNY   54  30  40 W8        29.69S
HINCKLEY       FAIR      55  32  41 W6        29.73S
CLOQUET        MOSUNNY   50  28  43 W12       29.69R
MCGREGOR       MOSUNNY   52  32  46 W6        29.71S
$$
MNZ071>073-080-081-089-090-097-098-182200-
   Southwest Minnesota

CITY           SKY/WX    TMP DP  RH WIND       PRES   REMARKS
MONTEVIDEO     PTSUNNY   55  46  71 CALM      29.79F
GRANITE FALLS  MOSUNNY   56  42  58 CALM      29.79F
CANBY          CLOUDY    58  41  52 CALM      29.77F
MARSHALL       MOSUNNY   58  37  45 CALM      29.77F
REDWOOD FALLS  SUNNY     58  36  43 CALM      29.77F
OLIVIA         SUNNY     55  41  58 N3        29.77F
PIPESTONE      MOSUNNY   59  34  38 S5        29.77S
WINDOM         SUNNY     59  36  41 CALM      29.79R
WORTHINGTON    SUNNY     57  40  52 S6        29.79F
JACKSON        SUNNY     55  37  50 SE3       29.79F
TRACY          SUNNY     59  40  49 SE5       29.78S
SLAYTON        SUNNY     58  39  50 SE5       29.79S
$$
MNZ065>067-074>077-082>085-091>093-182200-
   South Central Minnesota

CITY           SKY/WX    TMP DP  RH WIND       PRES   REMARKS
MANKATO          N/A     56  38  50 W3        29.79F
NEW ULM        SUNNY     55  37  50 CALM      29.78F
ST JAMES       SUNNY     57  39  51 CALM      29.79F
FAIRMONT       SUNNY     55  41  59 CALM      29.79F
GLENCOE        SUNNY     56  43  61 SW3       29.78R
FARIBAULT      SUNNY     55  39  54 SW6       29.79S
OWATONNA       SUNNY     55  37  50 W3        29.79S
WASECA         SUNNY     54  41  62 CALM      29.80S
ALBERT LEA     SUNNY     55  43  62 CALM      29.79S
$$
MNZ078>079-086>088-094>096-182200-
   Southeast Minnesota

CITY           SKY/WX    TMP DP  RH WIND       PRES   REMARKS
ROCHESTER      SUNNY     54  42  64 NW5       29.79R
RED WING       SUNNY     55  34  44 CALM      29.77S
STANTON        SUNNY     56  38  49 SW5       29.77S
DODGE CENTER   SUNNY     54  39  58 CALM      29.79S
WINONA         SUNNY     57  36  44 N6        29.77S
AUSTIN         SUNNY     55  39  54 CALM      29.78S
PRESTON        SUNNY     52  41  66 W6        29.78S
$$
ABBREVIATIONS USED IN REMARKS
   TC - TEMPERATURES IN CELSIUS
  WCI - WIND CHILL INDEX
   HX - HEAT INDEX
  VSB - VISIBILITY
$$




USA.gov is the U.S. government's official web portal to all federal, state and local government web resources and services.